Flag for Germany Weather past 2 weeks in Brühl (Rhineland), North Rhine-Westphalia, Germany

Now
48 °F

Overcast.


Feels Like: 48 °F
Forecast: 40 / 64 °F
Wind: 2 mph from West

Location: Noervenich

Current Time: May 26, 2015 at 7:51:00 AM

Latest Report: May 26, 2015 at 7:00 AM


Visibility: 13 mi

Pressure: 30.10 "Hg

Humidity: 83%

Dew point: 43 °F

Location of Brühl (Rhineland)Location

Historic Weather in Brühl (Rhineland) — Graph

°F

Brühl (Rhineland) temperature yesterday

Maximum temperature yesterday: 60 °F (at 7:00 PM)
Minimum temperature yesterday: 49 °F (at 4:00 AM)
Average temperature yesterday: 55 °F

Past Weeks' High & Low Weather Summary

 TemperatureHumidityPressure
High80 °F (May 11, 4:00 PM)95% (May 15, 12:00 AM)30.35 "Hg (May 15, 12:00 AM)
Low38 °F (May 21, 6:00 AM)31% (May 11, 4:00 PM)29.65 "Hg (May 18, 8:00 PM)
Average56 °F67%30.07 "Hg
* Reported May 11 4:00 AM — May 26 4:00 AM, Brühl (Rhineland), Weather by CustomWeather, © 2015

Note: Actual official high and low records may vary slightly from our data, if they occured in-between our weather recording intervals... More about our weather records

Advertising

Brühl (Rhineland) weather history for previous 24 hours

 ConditionsComfort  
Time TempWeatherWind HumidityBarometerVisibility
4:00 AM
Tue, May 26
50 °FOvercast.3 mph75%30.07 "Hg12 mi
3:00 AM50 °FOvercast.2 mph73%30.06 "Hg12 mi
1:00 AM52 °FOvercast.5 mph70%30.05 "Hg12 mi
12:00 AM53 °FOvercast.3 mph69%30.04 "Hg12 mi
10:00 PM
Mon, May 25
56 °FOvercast.3 mph65%30.01 "Hg12 mi
9:00 PM57 °FOvercast.2 mph65%29.98 "Hg12 mi
8:00 PM58 °FCool.5 mph62%29.98 "Hg7 mi
7:00 PM60 °FCool.3 mph60%29.97 "Hg7 mi
6:00 PM60 °FCool.3 mph63%29.96 "Hg7 mi
4:00 PM59 °FCool.3 mph81%29.97 "Hg4 mi
3:00 PM58 °FCool.3 mph86%29.97 "Hg3 mi
1:00 PM59 °FCool.3 mph87%29.98 "Hg4 mi
12:00 PM55 °FCool.5 mph92%29.99 "Hg3 mi
10:00 AM53 °FCool.2 mph90%30.01 "Hg4 mi
9:00 AM53 °FCool.1 mph87%30.01 "Hg2 mi
8:00 AM54 °FCool.2 mph71%30.01 "Hg6 mi
7:00 AM53 °FCool.2 mph72%30.01 "Hg5 mi
Weather by CustomWeather, © 2015

See weather overviewHow to use our weather pages